Weather History for South Bend, IN

Change the Weather History Date:

Sunday, June 16, 2013

  Actual Average Record
Temperature  
Mean Temperature 75 °F 70 °F  
Max Temperature 82 °F 80 °F 95 °F (1994)
Min Temperature 67 °F 59 °F 35 °F (1917)
Degree Days  
Heating Degree Days 0 1  
Month to date heating degree days 37 33  
Since 1 June heating degree days 37 33  
Since 1 July heating degree days 6140 6287  
Cooling Degree Days 10 6  
Month to date cooling degree days 47 66  
Year to date cooling degree days 143 122  
Since 1 June cooling degree days 47 66  
Growing Degree Days 24 (Base 50)    
Moisture  
Dew Point 62 °F    
Average Humidity 65    
Maximum Humidity 87    
Minimum Humidity 42    
Precipitation  
Precipitation T in 0.12 in 1.33 in (1922)
Month to date precipitation 1.26 2.09  
Year to date precipitation 18.56 15.81  
Snow  
Snow 0.00 in 0.00 in 0.00 in (2002)
Month to date snowfall 0.0 0.0  
Since 1 June snowfall 0.0 0.0  
Since 1 July snowfall 59.9 66.6  
Snow Depth 0.00 in    
Sea Level Pressure  
Sea Level Pressure 29.90 in    
Wind  
Wind Speed 7 mph (West)    
Max Wind Speed 20 mph    
Max Gust Speed 23 mph    
Visibility 10 miles    
Events Rain , Thunderstorm    
T = Trace of Precipitation, MM = Missing Value Source: NWS Daily Summary

Daily Weather History Graph

Daily Weather History Graph

Search for Another Location

Airport:

Trip Planner

Search our weather history database for the weather conditions in past years. The results will help you decide how hot, cold, wet, or windy it might be!

Date:

Astronomy

Jun. 16, 2013 Rise Set
Actual Time 6:10 AM EDT 9:22 PM EDT
Civil Twilight 5:35 AM EDT 9:56 PM EDT
Nautical Twilight 4:52 AM EDT 10:40 PM EDT
Astronomical Twilight 3:59 AM EDT 11:33 PM EDT
Moon 1:51 PM EDT (6/16) 1:20 AM EDT (6/16)
Length of Visible Light 16h 20m
Length of Day
15h 11m
Waxing Crescent, 49% of the Moon is Illuminated
Jun 16
Waxing Crescent
Jun 16
First Quarter
Jun 23
Full
Jun 30
Last Quarter
Jul 8
New

Hourly Weather History & Observations

Time (EDT) Temp. Heat Index Dew Point Humidity Pressure Visibility Wind Dir Wind Speed Gust Speed Precip Events Conditions
12:54 AM 69.1 °F - 64.0 °F 84% 29.89 in 10.0 mi SSW 9.2 mph - 0.00 in Rain Light Rain
1:29 AM 69.8 °F - 64.4 °F 83% 29.90 in 10.0 mi SW 9.2 mph - 0.00 in Rain , Thunderstorm Light Rain
1:44 AM 69.8 °F - 64.4 °F 83% 29.90 in 10.0 mi SW 11.5 mph - 0.00 in Rain Light Rain
1:54 AM 70.0 °F - 64.0 °F 81% 29.89 in 10.0 mi SW 10.4 mph - 0.00 in   Mostly Cloudy
2:54 AM 72.0 °F - 64.0 °F 76% 29.88 in 10.0 mi West 16.1 mph 23.0 mph N/A   Clear
3:35 AM 71.6 °F - 62.6 °F 73% 29.89 in 10.0 mi West 8.1 mph - N/A Thunderstorm Mostly Cloudy
3:50 AM 71.6 °F - 62.6 °F 73% 29.90 in 10.0 mi West 9.2 mph - N/A   Mostly Cloudy
3:54 AM 71.1 °F - 63.0 °F 75% 29.88 in 10.0 mi West 6.9 mph - N/A   Scattered Clouds
4:54 AM 70.0 °F - 61.0 °F 73% 29.89 in 10.0 mi WNW 6.9 mph - N/A   Partly Cloudy
5:54 AM 66.9 °F - 62.1 °F 84% 29.87 in 10.0 mi SSW 5.8 mph - N/A   Mostly Cloudy
6:54 AM 68.0 °F - 63.0 °F 84% 29.88 in 10.0 mi SW 10.4 mph - N/A   Overcast
7:54 AM 68.0 °F - 63.0 °F 84% 29.90 in 10.0 mi WSW 10.4 mph - 0.00 in   Mostly Cloudy
8:54 AM 71.1 °F - 63.0 °F 75% 29.91 in 10.0 mi WSW 10.4 mph - N/A   Scattered Clouds
9:54 AM 73.9 °F - 64.0 °F 71% 29.91 in 10.0 mi WNW 10.4 mph - N/A   Scattered Clouds
10:07 AM 73.4 °F - 64.4 °F 73% 29.93 in 10.0 mi West 6.9 mph - N/A   Mostly Cloudy
10:54 AM 75.0 °F - 64.0 °F 69% 29.91 in 10.0 mi NNW 12.7 mph - N/A   Mostly Cloudy
11:00 AM 75.2 °F - 64.4 °F 69% 29.92 in 10.0 mi WNW 6.9 mph - N/A   Mostly Cloudy
11:54 AM 75.9 °F - 64.0 °F 67% 29.91 in 10.0 mi WNW 9.2 mph - N/A   Mostly Cloudy
12:54 PM 78.1 °F - 63.0 °F 60% 29.91 in 10.0 mi WNW 8.1 mph - N/A   Mostly Cloudy
1:54 PM 79.0 °F - 62.1 °F 56% 29.91 in 10.0 mi West 8.1 mph - N/A   Scattered Clouds
2:54 PM 80.1 °F 81.5 °F 63.0 °F 56% 29.91 in 10.0 mi West 8.1 mph - N/A   Scattered Clouds
3:54 PM 80.1 °F 81.2 °F 62.1 °F 54% 29.91 in 10.0 mi WSW 10.4 mph - N/A   Scattered Clouds
4:54 PM 80.1 °F 81.5 °F 63.0 °F 56% 29.91 in 10.0 mi WNW 9.2 mph - N/A   Scattered Clouds
5:54 PM 80.1 °F 81.2 °F 62.1 °F 54% 29.91 in 10.0 mi West 6.9 mph - N/A   Scattered Clouds
6:54 PM 81.0 °F 81.0 °F 57.0 °F 44% 29.90 in 10.0 mi WNW 9.2 mph - N/A   Scattered Clouds
7:54 PM 81.0 °F 80.7 °F 55.0 °F 41% 29.90 in 10.0 mi NNW 3.5 mph - N/A   Clear
8:54 PM 75.9 °F - 55.0 °F 48% 29.90 in 10.0 mi Calm Calm - N/A   Partly Cloudy
9:54 PM 75.0 °F - 54.0 °F 48% 29.90 in 10.0 mi Calm Calm - 0.00 in Rain Light Rain
10:54 PM 72.0 °F - 59.0 °F 64% 29.91 in 10.0 mi SSW 4.6 mph - 0.00 in   Overcast
11:54 PM 72.0 °F - 57.0 °F 59% 29.91 in 10.0 mi Calm Calm - N/A   Scattered Clouds